Location: Unspecified
(45.3712°N, 0.6436°E)
Time: 06:12:39
(UTC+02:00)

ISS - Pass Details

Date: 16 July 2018
Orbit: 402 x 408 km, 51.6° (Epoch: 21 July)

Event Time Altitude Azimuth Distance (km) Brightness Sun altitude
Rises 05:40:52 0° 299° (WNW) 2,334 -0.2 -7.0°
Reaches altitude 10° 05:43:00 10° 305° (NW) 1,473 -1.1 -6.7°
Maximum altitude 05:46:14 49° 22° (NNE) 539 -2.7 -6.3°
Drops below altitude 10° 05:49:26 10° 98° (E) 1,469 -0.3 -5.8°
Sets 05:51:34 0° 104° (ESE) 2,328 0.6 -5.6°
